sat.trackr.live / text

‹ back to catalog

2025-055D

NORAD 63294 · 2025-055D

PAYLOAD ACTIVE UNKNOWN

§ Identity

Operator
Country
PRC
Launch date
2025-03-17
Launch site
JSC
Launch vehicle
Mass (kg)
RCS (m²)

External: N2YO · Heavens-Above · Gunter

§ Orbital elements

Epoch: 2026-09-22T23:03:03.951360Z

Period
94.96 min
Inclination
97.6636°
Eccentricity
0.0009054
Mean motion
15.16354070 rev/d
Perigee alt
510.6 km
Apogee alt
523.1 km
Semi-major
6,895.0 km
B*
3.2909e-4
RAAN
46.7765°
Arg perigee
142.5030°
Mean anomaly
217.6835°
Rev number
8,383

§ Raw data

2025-055D1 63294U 25055D   26265.96046240  .00006322  00000+0  32909-3 0  99912 63294  97.6636  46.7765 0009054 142.5030 217.6835 15.16354070 83837

JSON: /api/v1/satellites/63294 · /tle

For live sub-satellite position, see the globe view (requires WebGL).

§ Visibility from observer

Set your observer location to see the next 7 days of passes ≥ 10°. The values pass through the URL so the page stays shareable.

No JS? Fill the form by hand. The geolocation button needs JavaScript.